Weather History for KO54 - November, 2012

Change the Weather History Date:

Thursday, November 15, 2012

  Actual Average (KRDD) Record (KRDD)
Temperature  
Mean Temperature 44 °F -  
Max Temperature 50 °F 62 °F 83 °F (2008)
Min Temperature 37 °F 41 °F 31 °F (2000)
Degree Days  
Heating Degree Days 22    
Cooling Degree Days 0    
Moisture  
Dew Point 40 °F    
Average Humidity 85    
Maximum Humidity 100    
Minimum Humidity 71    
Precipitation  
Precipitation 0.00 in 0.13 in 0.81 in (1994)
Month to date precipitation 1.90  
Year to date precipitation 25.77  
Since 1 July precipitation 4.91  
Sea Level Pressure  
Sea Level Pressure 30.06 in    
Wind  
Wind Speed 1 mph (NNE)    
Max Wind Speed 7 mph    
Max Gust Speed -    
Visibility 9 miles    
Events      
T = Trace of Precipitation, MM = Missing Value Source: NWS Daily Summary

Daily Weather History Graph

Daily Weather History Graph

Search for Another Location

Airport or City:

Trip Planner

Search our weather history database for the weather conditions in past years. The results will help you decide how hot, cold, wet, or windy it might be!

Date:

Astronomy

Nov. 15, 2012 Rise Set
Actual Time 6:59 AM PST 4:53 PM PST
Civil Twilight 6:29 AM PST 5:22 PM PST
Nautical Twilight 5:56 AM PST 5:55 PM PST
Astronomical Twilight 5:24 AM PST 6:28 PM PST
Moon 9:01 AM PST (11/15) 6:50 PM PST (11/15)
Length of Visible Light 10h 52m
Length of Day
9h 53m
Waxing Crescent, 5% of the Moon is Illuminated
Nov 15
Waxing Crescent
Nov 20
First Quarter
Nov 28
Full
Dec 6
Last Quarter
Dec 13
New

Hourly Weather History & Observations

Time (PST) Temp. Windchill Dew Point Humidity Pressure Visibility Wind Dir Wind Speed Gust Speed Precip Events Conditions
12:15 AM 44.6 °F - 41.0 °F 87% 30.14 in 10.0 mi Calm Calm - N/A   Unknown
12:35 AM 44.6 °F - 41.0 °F 87% 30.13 in 7.0 mi Calm Calm - N/A   Unknown
12:55 AM 44.6 °F - 41.0 °F 87% 30.13 in 9.0 mi Calm Calm - N/A   Unknown
1:15 AM 44.6 °F - 41.0 °F 87% 30.12 in 10.0 mi Calm Calm - N/A   Unknown
1:35 AM 44.6 °F - 41.0 °F 87% 30.12 in 10.0 mi Calm Calm - N/A   Unknown
1:55 AM 44.6 °F - 41.0 °F 87% 30.12 in 10.0 mi Calm Calm - N/A   Unknown
2:15 AM 44.6 °F - 41.0 °F 87% 30.12 in 10.0 mi Calm Calm - N/A   Unknown
2:35 AM 44.6 °F 43.1 °F 41.0 °F 87% 30.12 in 10.0 mi NE 3.5 mph - N/A   Unknown
2:55 AM 44.6 °F - 41.0 °F 87% 30.11 in 10.0 mi Calm Calm - N/A   Unknown
3:15 AM 44.6 °F - 41.0 °F 87% 30.11 in 10.0 mi Calm Calm - N/A   Unknown
3:35 AM 44.6 °F - 41.0 °F 87% 30.10 in 10.0 mi Calm Calm - N/A   Unknown
3:55 AM 44.6 °F - 41.0 °F 87% 30.10 in 10.0 mi Calm Calm - N/A   Unknown
4:15 AM 44.6 °F 43.1 °F 39.2 °F 81% 30.10 in 10.0 mi NNE 3.5 mph - N/A   Unknown
4:35 AM 44.6 °F - 39.2 °F 81% 30.10 in 10.0 mi Calm Calm - N/A   Unknown
4:55 AM 44.6 °F - 39.2 °F 81% 30.09 in 10.0 mi Calm Calm - N/A   Unknown
5:15 AM 42.8 °F - 39.2 °F 87% 30.09 in 10.0 mi Calm Calm - N/A   Unknown
5:35 AM 44.6 °F 43.1 °F 39.2 °F 81% 30.09 in 10.0 mi NE 3.5 mph - N/A   Unknown
5:55 AM 42.8 °F 40.1 °F 39.2 °F 87% 30.08 in 10.0 mi NNE 4.6 mph - N/A   Unknown
6:15 AM 42.8 °F 41.1 °F 39.2 °F 87% 30.09 in 10.0 mi NNE 3.5 mph - N/A   Unknown
6:35 AM 42.8 °F 40.1 °F 39.2 °F 87% 30.09 in 10.0 mi NNE 4.6 mph - N/A   Unknown
6:55 AM 42.8 °F 38.6 °F 39.2 °F 87% 30.09 in 10.0 mi NNE 6.9 mph - N/A   Unknown
7:15 AM 42.8 °F 40.1 °F 39.2 °F 87% 30.09 in 10.0 mi NNE 4.6 mph - N/A   Unknown
7:35 AM 42.8 °F 40.1 °F 39.2 °F 87% 30.10 in 10.0 mi NNE 4.6 mph - N/A   Unknown
7:55 AM 42.8 °F 40.1 °F 39.2 °F 87% 30.10 in 10.0 mi NNE 4.6 mph - N/A   Unknown
8:15 AM 42.8 °F 40.1 °F 39.2 °F 87% 30.10 in 10.0 mi NNE 4.6 mph - N/A   Unknown
8:35 AM 42.8 °F 39.3 °F 39.2 °F 87% 30.10 in 10.0 mi North 5.8 mph - N/A   Unknown
8:55 AM 44.6 °F 43.1 °F 39.2 °F 81% 30.10 in 10.0 mi NNE 3.5 mph - N/A   Unknown
9:15 AM 44.6 °F - 39.2 °F 81% 30.11 in 10.0 mi Calm Calm - N/A   Unknown
9:35 AM 44.6 °F - 39.2 °F 81% 30.11 in 10.0 mi Calm Calm - N/A   Unknown
9:55 AM 44.6 °F 43.1 °F 39.2 °F 81% 30.10 in 10.0 mi North 3.5 mph - N/A   Unknown
10:15 AM 46.4 °F - 39.2 °F 76% 30.10 in 10.0 mi Calm Calm - N/A   Unknown
10:35 AM 46.4 °F - 39.2 °F 76% 30.09 in 10.0 mi Calm Calm - N/A   Unknown
10:55 AM 46.4 °F 42.9 °F 39.2 °F 76% 30.10 in 10.0 mi SSW 6.9 mph - N/A   Unknown
11:15 AM 46.4 °F 45.2 °F 39.2 °F 76% 30.09 in 10.0 mi SW 3.5 mph - N/A   Unknown
11:35 AM 48.2 °F - 41.0 °F 76% 30.08 in 10.0 mi South 3.5 mph - N/A   Unknown
11:55 AM 48.2 °F - 41.0 °F 76% 30.07 in 10.0 mi Calm Calm - N/A   Unknown
12:15 PM 48.2 °F - 41.0 °F 76% 30.07 in 10.0 mi SSW 3.5 mph - N/A   Unknown
12:35 PM 48.2 °F - 41.0 °F 76% 30.06 in 10.0 mi Calm Calm - N/A   Unknown
12:55 PM 48.2 °F - 41.0 °F 76% 30.05 in 10.0 mi SSW 4.6 mph - N/A   Unknown
1:15 PM 48.2 °F - 41.0 °F 76% 30.05 in 10.0 mi Calm Calm - N/A   Unknown
1:35 PM 48.2 °F - 41.0 °F 76% 30.04 in 10.0 mi Calm Calm - N/A   Unknown
1:55 PM 50.0 °F - 41.0 °F 71% 30.04 in 10.0 mi SW 3.5 mph - N/A   Unknown
2:15 PM 50.0 °F - 41.0 °F 71% 30.03 in 10.0 mi Calm Calm - N/A   Unknown
2:55 PM 50.0 °F - 41.0 °F 71% 30.02 in 10.0 mi Calm Calm - N/A   Unknown
3:15 PM 50.0 °F - 41.0 °F 71% 30.01 in 10.0 mi Calm Calm - N/A   Unknown
3:35 PM 50.0 °F - 42.8 °F 76% 30.00 in 10.0 mi Calm Calm - N/A   Unknown
3:55 PM 50.0 °F - 42.8 °F 76% 30.01 in 10.0 mi Calm Calm - N/A   Unknown
4:15 PM 48.2 °F - 42.8 °F 82% 30.01 in 8.0 mi Calm Calm - N/A   Unknown
4:35 PM 46.4 °F - 42.8 °F 87% 30.00 in 9.0 mi Calm Calm - N/A   Unknown
4:55 PM 46.4 °F 45.2 °F 42.8 °F 87% 30.00 in 9.0 mi North 3.5 mph - N/A   Unknown
5:15 PM 44.6 °F - 41.0 °F 87% 30.00 in 8.0 mi Calm Calm - N/A   Unknown
5:35 PM 42.8 °F - 41.0 °F 93% 30.00 in 9.0 mi Calm Calm - N/A   Unknown
5:55 PM 42.8 °F - 41.0 °F 93% 30.00 in 10.0 mi Calm Calm - N/A   Unknown
6:15 PM 41.0 °F - 39.2 °F 93% 30.01 in 7.0 mi Calm Calm - N/A   Unknown
6:35 PM 42.8 °F - 41.0 °F 93% 30.01 in 7.0 mi Calm Calm - N/A   Unknown
6:55 PM 42.8 °F - 41.0 °F 93% 30.02 in 7.0 mi Calm Calm - N/A   Unknown
7:15 PM 41.0 °F - 39.2 °F 93% 30.01 in 5.0 mi Calm Calm - N/A   Unknown
7:35 PM 42.8 °F 41.1 °F 41.0 °F 93% 30.02 in 6.0 mi North 3.5 mph - N/A   Unknown
7:55 PM 41.0 °F - 39.2 °F 93% 30.02 in 5.0 mi Calm Calm - N/A   Unknown
8:15 PM 41.0 °F - 39.2 °F 93% 30.02 in 8.0 mi Calm Calm - N/A   Unknown
8:35 PM 41.0 °F - 39.2 °F 93% 30.02 in 7.0 mi Calm Calm - N/A   Unknown
8:55 PM 41.0 °F - 39.2 °F 93% 30.02 in 7.0 mi Calm Calm - N/A   Unknown
9:15 PM 39.2 °F - 37.4 °F 93% 30.03 in 5.0 mi Calm Calm - N/A   Unknown
9:35 PM 39.2 °F 37.0 °F 37.4 °F 93% 30.03 in 6.0 mi East 3.5 mph - N/A   Unknown
9:55 PM 39.2 °F - 37.4 °F 93% 30.03 in 5.0 mi Calm Calm - N/A   Unknown
10:15 PM 37.4 °F - 37.4 °F 100% 30.02 in 4.0 mi Calm Calm - N/A   Unknown
10:35 PM 39.2 °F - 37.4 °F 93% 30.02 in 5.0 mi Calm Calm - N/A   Unknown
10:55 PM 37.4 °F - 37.4 °F 100% 30.02 in 5.0 mi Calm Calm - N/A   Unknown
11:15 PM 37.4 °F - 35.6 °F 93% 30.02 in 5.0 mi Calm Calm - N/A   Unknown
11:35 PM 37.4 °F 34.9 °F 35.6 °F 93% 30.02 in 5.0 mi NNE 3.5 mph - N/A   Unknown
11:55 PM 37.4 °F - 37.4 °F 100% 30.02 in 1.2 mi Calm Calm - N/A   Unknown